Location: Biella
(45.5670°N, 8.0500°E)
Time: 09:54:02
(UTC+01:00)

ISS - Visible Passes

Search period start: 22 January 2019 00:00
Search period end: 01 February 2019 00:00
Orbit: 404 x 410 km, 51.6° (Epoch: 23 January)

Date Brightness Start Highest point End Pass type
(mag) Time Alt. Az. Time Alt. Az. Time Alt. Az.
22 Jan -2.0 19:28:17 10° SW 19:30:01 26° SSW 19:30:01 26° SSW visible
23 Jan -2.4 18:37:27 10° SSW 18:40:12 25° SE 18:41:04 22° ESE visible
23 Jan -0.5 20:13:17 10° WSW 20:13:48 14° WSW 20:13:48 14° WSW visible
24 Jan -3.5 19:21:52 10° WSW 19:24:46 67° WSW 19:24:46 67° WSW visible
25 Jan -3.5 18:30:36 10° SW 18:33:50 55° SE 18:35:40 23° ENE visible
25 Jan -0.9 20:07:23 10° W 20:08:23 17° WNW 20:08:23 17° WNW visible
26 Jan -3.3 19:15:47 10° W 19:19:00 49° NNW 19:19:13 48° N visible
27 Jan -3.7 18:24:16 10° WSW 18:27:33 73° NNW 18:29:59 17° ENE visible
27 Jan -1.1 20:01:31 10° WNW 20:02:42 18° NW 20:02:42 18° NW visible
28 Jan -2.7 19:09:51 10° W 19:12:54 33° NNW 19:13:25 31° N visible
29 Jan -3.0 18:18:11 10° W 18:21:21 42° NNW 18:24:07 13° NE visible
29 Jan -1.3 19:55:32 10° WNW 19:56:49 18° NW 19:56:49 18° NW visible
30 Jan -2.4 19:03:54 10° WNW 19:06:48 28° N 19:07:29 25° NNE visible
31 Jan -2.5 18:12:13 10° WNW 18:15:12 31° N 18:18:09 10° NE visible
31 Jan -1.6 19:49:20 10° NW 19:50:52 21° NW 19:50:52 21° NW visible
